Regional Weather Roundup
Issued by NWS Grand Forks, ND

Home | Current Version | Previous Version | Text Only | Print | Product List | Glossary Off
Versions: 1 2 3 4 5 6 7 8 9 10 11 12 13 14 15 16 17 18 19 20 21 22 23 24 25 26 27 28 29 30 31 32 33 34 35 36 37 38 39 40 41 42 43 44 45 46 47 48 49 50

532
ASUS43 KFGF 180531
RWRFGF
PRAIRIE TO PINES  WEATHER ROUNDUP
NATIONAL WEATHER SERVICE EASTERN NORTH DAKOTA/GRAND FORKS ND
1100 PM CST WED JAN 17 2018

 **SATELLITE DATA USED TO AUGMENT SKY COVER AT AUTOMATED STATIONS**
 *****  WEATHER ACROSS EASTERN NORTH DAKOTA  *****

CITY           SKY/WX    TMP DP  RH WIND       PRES   REMARKS
GRAND FORKS    MOCLDY    34  25  69 SW17      29.81F WCI  23
GRAND FRKS AFB CLOUDY    34  24  65 W18       29.81F WCI  23
GRAND FRKS NWS   N/A     32 N/A N/A SW15        N/A  WCI  22
DEVILS LAKE    FAIR      30  23  75 W17       29.82F WCI  18
FARGO          FAIR      31  23  72 SW18      29.91F WCI  19
WAHPETON ARPT  FAIR      27  19  74 W13       29.96F WCI  16
$$

 ***** WEATHER ACROSS CENTRAL AND WESTERN NORTH DAKOTA  *****

CITY           SKY/WX    TMP DP  RH WIND       PRES   REMARKS
BISMARCK       FAIR      30  22  72 W9        29.97F WCI  22
MINOT          FAIR      34  21  59 SW17      29.85F WCI  23
JAMESTOWN      FAIR      33  23  66 W18       29.90F WCI  22
MINOT AFB      FAIR      29  20  70 W17       29.83F WCI  17
GARRISON         N/A     24  19  81 W7        29.91F WCI  16
WILLISTON      FAIR      23  16  74 SW9       29.94F WCI  13
DICKINSON      FAIR      28  19  69 W12       29.93F WCI  18
HETTINGER      FAIR      25  18  74 W10       30.00F WCI  15
$$

 *****  OTHER AIRPORT OBSERVATIONS IN OUR AREA  *****

CITY           SKY/WX    TMP DP  RH WIND       PRES   REMARKS
WALHALLA       FAIR      36  25  64 W13G24    29.69R
GRAFTON AIRPOR FAIR      32  25  74 SW22      29.75F WCI  19
VALLEY CITY AR MIX PCPN  30  23  74 SW22      29.91F WCI  17
CANDO          MOCLDY    30  23  74 W22       29.79F WCI  17
CAVALIER APRT    N/A     37  25  60 W22       29.71F
GWINNER          N/A     27  21  80 W14       29.97F WCI  15
SHEYENNE NWR     N/A     27  22  82 W5        29.95  WCI  22
ROLLA          CLOUDY    36  21  55 W23G29    29.73F
 ***** THE ABOVE OBSERVATIONS ARE NON NWS ARE NOT QUALITY
       CONTROLLED AND MAY MIS-REPORT RAIN FOR SNOW...
$$

  *****  WEATHER ACROSS NORTHERN MINNESOTA  *****

CITY           SKY/WX    TMP DP  RH WIND       PRES   REMARKS
FLAG ISLAND    CLOUDY    27  23  86 SW13      29.64F WCI  16
WARROAD        FAIR      30  25  80 SW10G18   29.69F WCI  21
ROSEAU         CLOUDY    30  25  80 SW18G26   29.68F WCI  18
HALLOCK        CLOUDY    30  25  80 S13       29.71F WCI  20
THF RVR FALLS  FAIR      29  22  75 SW18      29.82S WCI  16
BAUDETTE       FAIR      28  22  78 SW14G22   29.71F WCI  17
WASKISH        FAIR      28  25  86 SW18      29.77F WCI  16
CROOKSTON      FAIR      27  21  80 SW15      29.83F WCI  15
STEPHEN NDAWN    N/A     27  19  74 S12         N/A  WCI  16
GREENBUSH NDAW   N/A     30  25  80 SW20        N/A  WCI  18
$$
  *****  WEATHER ACROSS CENTRAL AND WEST MINNESOTA  *****

CITY           SKY/WX    TMP DP  RH WIND       PRES   REMARKS
FOSSTON        FAIR      25  19  80 SW13      29.86F WCI  13
BEMIDJI        FAIR      30  21  69 W14       29.82F WCI  20
PARK RAPIDS    FAIR      25  19  78 W13       29.87F WCI  14
ELBOW LAKE     FAIR      14  12  92 W8        29.98F WCI   3
WADENA         FAIR      27  19  74 W12       29.91F WCI  16
DETROIT LAKES  FAIR      32  23  69 W13G18    29.90F WCI  22
MOORHEAD       FAIR      30  21  69 W12       29.92F WCI  21
FERGUS FALLS   FAIR      19  16  86 SW5       29.96F WCI  13
MORRIS MN      FAIR      28  21  74 W10       29.98S WCI  19
STAPLES        FAIR      27  19  74 W10       29.92R WCI  17
$$
  *****  WEATHER ELSEWHERE ACROSS MINNESOTA  *****

CITY           SKY/WX    TMP DP  RH WIND       PRES   REMARKS
DULUTH         FAIR      23  15  71 W14       29.82S WCI  11
INTRNTL FALLS  FAIR      22  18  85 SW7       29.74F WCI  13
ELY            FAIR      18  14  86 SW5       29.77F WCI  11
CLOQUET        FAIR      25  16  68 W10       29.85S WCI  15
WHEATON        FAIR      30  21  69 W13       30.01S WCI  20
BRAINERD       FAIR      20  15  81 SW8       29.91F WCI  10
HIBBING        FAIR      23  17  78 VRB6      29.81F WCI  16
ALEXANDRIA     FAIR      26  20  77 SW12      29.97S WCI  16
SAINT CLOUD    FAIR      24  18  77 W9        29.98S WCI  14
MINNEAPOLIS    FAIR      25  17  72 SW8       30.04S WCI  16
$$

  *****  WEATHER ACROSS SOUTH DAKOTA  *****

CITY           SKY/WX    TMP DP  RH WIND       PRES   REMARKS
SIOUX FALLS    FAIR      24  17  74 VRB3      30.13F
BROOKINGS      FAIR      16  13  88 SW6       30.09F WCI   7
WATERTOWN      FAIR      19  16  88 SW10      30.04F WCI   7
HURON          FAIR      26  21  81 SW6       30.09F WCI  19
SISSETON         N/A     33  23  66 W21G28    29.98S WCI  21
ABERDEEN       FAIR      22  18  85 W9        30.04F WCI  12
MITCHELL       FAIR      24  20  84 SW6       30.13F WCI  17
PIERRE         FAIR      28  23  81 CALM      30.09F
MOBRIDGE       FAIR      22  17  81 SE6       30.01F WCI  14
RAPID CITY     FAIR      32  18  56 NW5       30.07F
$$

  *****  SOME WEATHER IN NEARBY STATES *****

CITY           SKY/WX    TMP DP  RH WIND       PRES   REMARKS
GLASGOW MT     FAIR      15  12  88 CALM      29.90F
GREAT FALLS MT FAIR      45  23  42 S20G38    29.93S
CHEYENNE WY    FAIR      34  12  40 SW15      30.19F WCI  24
SCOTTSBLUFF NE FAIR      23  18  81 CALM      30.17F
OMAHA NE       FAIR      15   9  76 SE9       30.29F WCI   3
DES MOINES IA  FAIR      20  10  65 SW13      30.27F WCI   7
DAVENPORT IA   FAIR      19  10  68 SW21      30.28F WCI   3
CHICAGO IL     FAIR      18   9  68 SW21G31   30.21F WCI   1
EAU CLAIRE WI  FAIR      23  15  71 SW13      30.00F WCI  11
LA CROSSE WI   FAIR      22  12  65 S10       30.11F WCI  11
$$

  *****  SOME NATIONAL WEATHER *****

CITY           SKY/WX    TMP DP  RH WIND       PRES   REMARKS
LA GUARDIA NY  FAIR      23  11  60 NW14      30.16F WCI  11
RALEIGH NC     FLURRIES  23  19  85 VRB3      30.25F
ATLANTA GA     FAIR      17   8  67 NW17      30.39S WCI   1
NEW ORLEANS LA FAIR      31  16  54 NE10      30.61S WCI  22
OKLAHOMA CITY  FAIR      19   6  57 S10       30.49F WCI   7
ALBUQUERQUE NM FAIR      28  12  51 CALM      30.34R
SALT LAKE CITY MOCLDY    38  31  76 SE7       30.33S
LOS ANGELES CA FAIR      62  57  83 CALM      30.11R
BOISE ID       FAIR      43  32  65 S8        30.16F
SEATTLE WA     CLOUDY    51  48  89 S10       29.74F
$$

*** WEATHER ACROSS MANITOBA...SASKATCHEWAN AND ONTARIO ***
                ***ONTARIO***

CITY           SKY/WX    TMP DP  RH WIND       PRES   REMARKS
GERALDTON      CLOUDY    10   7  85 CALM      29.73S
THUNDER BAY    CLEAR      5   1  85 NW3       29.79S
SIOUX LOOKOUT  PTCLDY     7   3  85 SE5       29.66F WCI  -2
TORONTO        PTCLDY    19  12  73 SW16      30.04F WCI   5
BIG TROUT LK   FLURRIES  10   5  79 CALM      29.77S
PICKLE LAKE    NOT AVBL
DRYDEN         CLOUDY    16  12  86 SW9       29.66S WCI   4
KENORA         CLOUDY    21  18  86 S8        29.63F WCI  12
$$
                *** MANITOBA***

CITY           SKY/WX    TMP DP  RH WIND       PRES   REMARKS
BRANDON        CLOUDY    37  30  75 NW18      29.70R
DAUPHIN        CLEAR     23  19  86 N6        29.72R WCI  16
ISLAND LAKE    FLURRIES  10   7  85 E7        29.71F WCI   0
PILOT MOUND      N/A     37  25  60 W15G25      N/A
THE PAS        CLEAR      3  -2  78 CALM      29.73F
THOMPSON       LGT SNOW   9   5  85 NE5       29.78S WCI   0
WINNIPEG       LGT RAIN  34  32  93 NW16G23   29.63S WCI  23
LYNN LAKE      FLURRIES   7   5  92 E6        29.73F WCI  -3
CHURCHILL      CRYSTALS  -8 -11  84 SW6       29.92R FOG     WCI -21
GILLAM         FLURRIES   1  -4  78 E5        29.84F WCI  -8
$$
                ***SASKATCHEWAN***

CITY           SKY/WX    TMP DP  RH WIND       PRES   REMARKS
ESTEVAN        PTCLDY    21  16  79 SW14      29.84F WCI   8
KINDERSLEY     PTCLDY    21  16  79 S7        29.73F WCI  13
LLOYDMINSTER   PTCLDY    25  18  74 S9        29.65F WCI  15
PRINCE ALBERT  MOCLDY     9   5  85 CALM      29.71F
REGINA         PTCLDY    18  14  86 SW6       29.80F WCI   9
YORKTON        CLEAR     34  28  80 NW10      29.71F
N. BATTLEFORD  CLEAR     23  16  74 VRB2      29.73F
LA RONGE       MOCLDY     1  -4  78 W6        29.70F WCI -10
SASKATOON      CLEAR     23  18  80 S8        29.76S WCI  14
SWIFT CURRENT  PTCLDY    27  16  63 SW12      29.77F WCI  16
$$
NOTE: THESE ARE AUTOMATED STATIONS WITH LIMITED QUALITY CONTROL
      "FAIR" INDICATES FEW OR NO CLOUDS BELOW 12,000 FEET WITH NO
      SIGNIFICANT WEATHER AND/OR OBSTRUCTIONS TO VISIBILITY.
      SKY/WX - SKY CONDITION AND SIGNIFICANT WEATHER.
      TMP - AIR TEMPERATURE.    DP   - DEWPOINT TEMPERATURE.
      RH  - RELATIVE HUMIDITY.  PRES - PRESSURE.
      HX  - HEAT INDEX.         WCI  - WIND CHILL INDEX.
$




USA.gov is the U.S. government's official web portal to all federal, state and local government web resources and services.